Regional Weather Roundup
Issued by NWS Goodland, KS

Home | Current Version | Previous Version | Graphics & Text | Print | Product List | Glossary On
Versions: 1 2 3 4 5 6 7 8 9 10 11 12 13 14 15 16 17 18 19 20 21 22 23 24 25 26 27 28 29 30 31 32 33 34 35 36 37 38 39 40 41 42 43 44 45 46 47 48 49 50
000
ASUS43 KGLD 251508
RWRGLD

GOODLAND FORECAST AREA HOURLY WEATHER ROUNDUP
NATIONAL WEATHER SERVICE GOODLAND KS
800 AM MST SUN FEB 25 2018

...OFFICIAL OBSERVATIONS...

CITY           SKY/WX    TMP DP  RH WIND       PRES   REMARKS
GOODLAND KS    SUNNY     27  12  53 W15       29.94R WCI  15
HILL CITY KS   CLOUDY    25  16  68 W7        30.00R
IMPERIAL NEB   SUNNY     24  14  65 W7        29.93R
MCCOOK NEB     PTSUNNY   28  19  69 W8        29.96R
AKRON CO       SUNNY     24  10  55 W15       29.89R WCI  11
BURLINGTON CO  SUNNY     23  14  68 W12       29.94R WCI  12
LIMON CO       SUNNY     19  10  68 NW12      29.91R WCI   7
$$

...UNOFFICIAL OBSERVATIONS...

CITY           SKY/WX    TMP DP  RH WIND       PRES   REMARKS
COLBY KS       SUNNY     27  19  74 W12       29.98R WCI  16
NORTON KS      SUNNY     28  16  59 W10       29.97  WCI  19
SHARON SPRINGS   N/A     24  14  66 CALM        N/A
KIT CARSON CO    N/A     24  14  64 MISG        N/A
$$




USA.gov is the U.S. government's official web portal to all federal, state and local government web resources and services.